Simultaneous Nadir Overpasses (SNOs) Predictions

Prediction of SNOs between NOAA-19 and TERRA Satellite Orbit:

Table of predicted SNOs for the next 14.0 days since TLE Epoch: 5/9/2015
Index Date (NOAA-19) Time (NOAA-19) Lat,Lon (NOAA-19) SZA (NOAA-19 ) Date (TERRA) Time (TERRA) Lat,Lon (TERRA) SZA (TERRA ) Distance(km) Time Diff (sec)
1 05/10/2015 02:11:51 -72.17, -29.93 125.39 05/10/2015 02:13:03 -72.05, -29.35 125.48 23.74 72
2 05/10/2015 03:02:45 71.85, 137.95 54.31 05/10/2015 03:02:32 71.86, 137.96 54.31 0.77 13
3 05/12/2015 07:46:10 71.92, 67.00 53.81 05/12/2015 07:46:51 71.90, 66.95 53.79 2.63 41
4 05/12/2015 08:37:10 -71.82,-125.57 126.30 05/12/2015 08:36:20 -71.84,-125.53 126.29 2.16 50
5 05/14/2015 12:29:51 72.80, -5.61 54.11 05/14/2015 12:30:56 72.68, -2.72 54.07 96.41 65
6 05/14/2015 13:20:34 -71.87, 163.52 126.79 05/14/2015 13:20:39 -71.87, 163.44 126.80 2.80 5
7 05/14/2015 14:11:23 71.25, -28.06 52.62 05/14/2015 14:10:14 71.34, -29.79 52.65 62.65 69
8 05/16/2015 18:03:59 -71.99, 92.50 127.20 05/16/2015 18:04:56 -71.99, 92.57 127.19 2.68 57
9 05/16/2015 18:54:58 71.84, -99.98 52.66 05/16/2015 18:54:24 71.84,-100.04 52.65 2.14 34
10 05/18/2015 23:38:23 71.93,-170.97 52.25 05/18/2015 23:38:41 71.94,-170.94 52.26 1.37 18
11 05/19/2015 00:29:21 -71.82, -3.49 127.87 05/19/2015 00:28:11 -71.83, -3.50 127.86 1.57 70
12 05/21/2015 04:21:47 71.98, 118.13 51.84 05/21/2015 04:22:59 71.97, 118.03 51.83 3.37 72
13 05/21/2015 05:12:45 -71.89, -74.45
